Regional Weather Roundup
Issued by NWS Kansas City/Pleasant Hill, MO

Home | Current Version | Previous Version | Text Only | Print | Product List | Glossary On
Versions: 1 2 3 4 5 6 7 8 9 10 11 12 13 14 15 16 17 18 19 20 21 22 23 24 25 26 27 28 29 30 31 32 33 34 35 36 37 38 39 40 41 42 43 44 45 46 47 48 49 50
000
ASUS43 KEAX 292110
RWREAX

WEATHER ROUNDUP FOR EASTERN KANSAS AND NORTHWEST MISSOURI
NATIONAL WEATHER SERVICE KANSAS CITY/PLEASANT HILL MO
400 PM CDT SUN MAY 29 2016

KSZ040-057-103>105-MOZ028-029-037-043-292200-
...KANSAS CITY METROPOLITAN AREA...

CITY           SKY/WX    TMP DP  RH WIND       PRES   REMARKS
K.C. INTL      MOSUNNY   84  58  40 SW8       30.07F
K.C. DOWNTOWN  CLOUDY    87  56  34 SW8       30.05F
LEES SUMMIT    MOSUNNY   84  57  39 SW6       30.08F
OLATHE - IXD   CLOUDY    84  55  36 S5        30.08F
OLATHE - OJC   CLOUDY    82  56  40 S6        30.08F
LAWRENCE       CLOUDY    85  56  37 W7        30.06F

$$

MOZ001>008-011>017-020>025-030>033-038>040-044>046-053-054-292200-
...NORTHERN AND CENTRAL MISSOURI...

CITY           SKY/WX    TMP DP  RH WIND       PRES   REMARKS
ST. JOSEPH     SUNNY     87  57  35 SW13G20   30.04F
MOSBY          CLEAR     84  54  34 SW8       30.07F
WARRENSBURG    SUNNY     82  57  42 CALM      30.08F
WHITEMAN AFB   SUNNY     84  56  37 VRB5      30.07F
CLINTON        SUNNY     84  63  48 CALM      30.08F
SEDALIA        SUNNY     84  58  40 VRB3      30.10F
WARSAW         NOT AVBL
CHILLICOTHE      N/A     85  60  42 SW6       30.07F
KIRKSVILLE     PTSUNNY   81  62  52 W6        30.08F

$$

MOZ041-047>049-056>058-063>065-088>090-097-292200-
...EASTERN AND SOUTHERN MISSOURI...

CITY           SKY/WX    TMP DP  RH WIND       PRES   REMARKS
ST. LOUIS INTL PTSUNNY   88  55  32 W9        30.08F
SPIRIT OF STL  MOSUNNY   87  58  37 W6        30.07F
COLUMBIA       SUNNY     85  57  38 W9        30.09F
JEFFERSON CITY MOSUNNY   84  57  39 W9        30.07F
ROLLA          MOSUNNY   83  62  49 N8        30.09F
SPRINGFIELD    SUNNY     84  60  44 W6        30.09F
BRANSON        PTSUNNY   81  66  61 CALM      30.14F
JOPLIN         CLOUDY    84  63  49 NW6       30.08F
WEST PLAINS    CLOUDY    82  61  48 CALM      30.13F

$$

IAZ060-094-KSZ022-034>040-054-083-096-NEZ052-066-093-292200-
...KANSAS...SOUTHEAST NEBRASKA AND IOWA...

CITY           SKY/WX    TMP DP  RH WIND       PRES   REMARKS
TOPEKA         CLOUDY    85  56  37 SW7       30.05F
MANHATTAN      CLOUDY    83  63  50 S5        30.03F
EMPORIA        CLOUDY    83  62  49 SE7       30.07F
CHANUTE        CLOUDY    80  68  66 S3        30.08S
WICHITA        PTSUNNY   85  60  42 S6        30.04F
OMAHA          MOSUNNY   85  56  37 VRB6      30.03F
LINCOLN        SUNNY     86  54  33 SW8       30.04F
FALLS CITY     SUNNY     85  61  44 SW10      30.04F
LAMONI         MOSUNNY   79  61  53 W7        30.06F
DES MOINES     MOSUNNY   83  53  35 W9        30.03F

$$




USA.gov is the U.S. government's official web portal to all federal, state and local government web resources and services.